Location: ????
(30.1475°N, 31.1342°E)
Time: 11:23:30
(UTC+00:00)

Cosmos 1461 - Pass Details

Date: 27 September 2022
Orbit: 501 x 646 km, 65.0° (Epoch: 26 November)

Event Time Altitude Azimuth Distance (km) Brightness Sun altitude
Rises 03:13:36 0° 211° (SSW) 2,590 5.9 -7.9°
Reaches altitude 10° 03:15:44 10° 214° (SW) 1,720 5.0 -7.5°
Maximum altitude 03:19:32 68° 297° (WNW) 563 2.7 -6.6°
Drops below altitude 10° 03:23:31 10° 21° (NNE) 1,791 5.8 -5.8°
Sets 03:25:47 0° 24° (NNE) 2,710 6.7 -5.3°
